Location: �quirre
(50.4736°N, 2.2351°E)
Time: 08:26:30
(UTC+00:00)

PSLV R/B - Pass Details

Date: 07 August 2020
Orbit: 598 x 701 km, 97.9° (Epoch: 26 September)

Event Time Altitude Azimuth Distance (km) Brightness Sun altitude
Rises 00:40:43 0° 11° (NNE) 3,015 8.6 -22.5°
Reaches altitude 10° 00:42:56 10° 9° (N) 2,112 7.4 -22.4°
Maximum altitude 00:47:31 67° 288° (WNW) 746 3.9 -22.3°
Enters shadow 00:48:23 54° 235° (SW) 836 3.9 -22.2°
